Simultaneous Nadir Overpasses (SNOs) Predictions

Prediction of SNOs near equator between AQUA and NPP Satellite Orbit:

Table of predicted SNOs near equator for the next 14.0 days since TLE Epoch: 8/7/2021
Index Date (AQUA) Time (AQUA) AQUA Lat,Lon Date (NPP) Time (NPP) NPP Lat,Lon Distance(km) Time Diff (sec)
1 08/07/2021 07:52:36 5.22, 84.96 08/07/2021 07:42:52 5.17, 84.75 23.83 584
2 08/07/2021 08:40:43 -0.70,-106.42 08/07/2021 08:32:15 -0.62,-106.90 54.03 508
3 08/07/2021 09:28:58 -3.91, 62.18 08/07/2021 09:21:45 -4.06, 61.44 83.48 433
4 08/10/2021 00:08:38 3.59,-158.81 08/09/2021 23:59:21 3.53,-159.12 34.24 557
5 08/10/2021 00:56:46 0.87, 9.80 08/10/2021 00:48:44 1.02, 9.24 64.43 482
6 08/10/2021 01:45:00 -5.54, 178.41 08/10/2021 01:38:14 -5.69, 177.58 93.61 406
7 08/12/2021 15:38:57 -15.74, 146.81 08/12/2021 15:28:57 -15.78, 146.55 27.63 600
8 08/12/2021 16:24:40 1.96, -42.59 08/12/2021 16:15:50 1.90, -42.98 44.71 530
9 08/12/2021 17:12:48 2.50, 126.02 08/12/2021 17:05:13 2.66, 125.37 74.73 455
10 08/15/2021 07:52:26 -4.90, -94.95 08/15/2021 07:42:48 -4.87, -95.18 25.47 578
11 08/15/2021 08:40:42 0.35, 73.64 08/15/2021 08:32:19 0.26, 73.15 55.19 503
12 08/15/2021 09:28:49 4.17,-117.74 08/15/2021 09:21:41 4.35,-118.48 84.93 428
13 08/18/2021 00:08:27 -3.29, 21.28 08/17/2021 23:59:16 -3.24, 20.96 35.90 551
14 08/18/2021 00:56:43 -1.26,-170.14 08/18/2021 00:48:47 -1.37,-170.72 65.65 476
15 08/18/2021 01:44:50 5.78, -1.51 08/18/2021 01:38:09 5.98, -2.35 95.15 401
16 08/20/2021 15:36:22 6.21, -31.12 08/20/2021 15:26:22 6.17, -31.27 16.36 600
17 08/20/2021 16:24:28 -1.62, 137.51 08/20/2021 16:15:44 -1.55, 137.10 46.34 524
18 08/20/2021 17:12:44 -2.92, -53.90 08/20/2021 17:05:15 -3.06, -54.57 76.02 449
